SCP
0 0 0 0 0 0 0 0 0 3 2 1 1 1 1 1 1 2 3 3 2 1 2 1 2 2 2 3 3 2 2 1 1 1 0 1 1 2 1 1 1 1 1
0 0 0 0 0 0 0 0 0 2 3 2 2 1 1 1 1 1 3 2 1 2 2 2 3 3 1 2 1 1 1 0 1 1 0 0 0 0 1 1 1 1 1
0 0 0 0 0 0 0 0 0 1 3 3 2 2 2 2 2 2 2 2 2 2 3 3 2 3 2 1 2 2 2 1 1 2 1 1 0 1 0 1 1 1 1
0 0 0 0 0 0 0 0 0 0 1 2 2 3 2 1 1 2 2 3 3 3 2 3 3 3 3 2 2 2 2 1 1 0 1 2 2 1 1 1 1 1 1
0 0 0 0 0 0 0 0 0 1 2 2 2 3 2 2 2 2 8 6 4 4 3 3 3 2 2 2 1 1 2 1 1 0 0 1 0 1 1 0 0 1 1
0 0 0 0 0 0 1 1 1 1 1 2 2 3 5 4 5 6 7 6 4 2 1 1 1 2 2 1 2 2 1 2 2 1 1 0 0 0 0 0 0 0 0
0 0 0 0 0 0 0 0 1 1 1 2 2 3 5 6 6 6 4 3 2 1 3 1 3 1 2 1 2 2 2 1 1 3 0 0 0 0 0 0 0 0 0
0 0 0 0 0 0 0 0 0 0 0 0 0 0 1 1 1 1 2 1 0 0 2 1 1 1 1 1 2 0 0 1 1 2 1 0 0 0 0 0 0 0 0
0 0 0 0 0 0 0 0 0 0 0 0 0 0 0 0 1 1 1 0 2 0 0 0 1 1 1 1 2 0 1 1 1 1 2 0 0 0 0 0 0 0 0
0 0 0 0 0 0 0 0 0 0 0 0 0 0 0 0 0 0 0 0 0 0 1 1 1 1 1 1 2 1 1 2 1 1 1 2 0 0 0 0 0 0 0
0 0 0 0 0 0 0 0 0 0 0 0 0 0 0 0 0 0 0 0 0 0 0 0 0 0 1 2 3 3 3 2 3 2 2 1 2 1 0 0 0 0 0
0 0 0 0 0 0 0 0 0 0 0 0 0 0 0 0 0 0 0 0 0 0 0 0 0 0 0 1 2 2 2 2 2 2 2 2 2 2 1 1 0 0 0
0 0 0 0 0 0 0 0 0 0 0 0 0 0 0 0 0 0 0 0 0 0 0 0 0 0 0 0 1 1 1 2 2 2 2 2 2 2 2 2 1 1 0
0 0 0 0 0 0 0 0 0 0 0 0 0 0 0 0 0 0 0 0 0 0 0 0 0 0 0 0 0 0 0 1 1 2 2 2 2 2 2 1 2 1 1
0 0 0 0 0 0 0 0 0 0 0 0 0 0 0 0 0 0 0 0 0 0 0 0 0 0 0 0 0 0 0 0 0 0 1 1 2 1 1 2 1 1 1
0 0 0 0 0 0 0 0 0 0 0 0 0 0 0 0 0 0 0 0 0 0 0 0 0 0 0 0 0 0 0 0 0 0 0 0 0 0 0 0 0 0 1
0 0 0 0 0 0 0 0 0 0 0 0 0 0 0 0 0 0 0 0 0 0 0 0 0 0 0 0 0 0 0 0 0 0 0 0 0 0 0 0 0 0 0
0 0 0 0 0 0 0 0 0 0 0 0 0 0 0 0 0 0 0 0 0 0 0 0 0 0 0 0 0 0 0 0 0 0 0 0 0 0 0 0 0 0 0
0 0 0 0 0 0 0 0 0 0 0 0 0 0 0 0 0 0 0 0 0 0 0 0 0 0 0 0 0 0 0 0 0 0 0 0 0 0 0 0 0 0 0
0 0 0 0 0 0 0 0 0 0 0 0 0 0 0 0 0 0 0 0 0 0 0 0 0 0 0 0 0 0 0 0 0 0 0 0 0 0 0 0 0 0 0
0 0 0 0 0 0 0 0 0 0 0 0 0 0 0 0 0 0 0 0 0 0 0 0 0 0 0 0 0 0 0 0 0 0 0 0 0 0 0 0 0 0 0
0 0 0 0 0 0 0 0 0 0 0 0 0 0 0 0 0 0 0 0 0 0 0 0 0 0 0 0 0 0 0 0 0 0 0 0 0 0 0 0 0 0 0
0 0 0 0 0 0 0 0 0 0 0 0 0 -0 0 0 0 0 0 0 0 0 0 0 0 0 0 0 0 0 0 0 0 0 0 0 0 0 0 0 0 0 0
0 0 0 0 0 0 0 0 0 0 0 -0 -0 0 0 0 0 0 0 0 0 0 0 0 0 0 0 0 0 0 0 0 0 0 0 0 0 0 0 0 0 0 0
0 0 0 0 0 -0 0 -0 0 0 -0 -0 0 0 0 0 0 0 0 0 0 0 0 0 0 0 0 0 0 0 0 0 0 0 0 0 0 0 0 0 0 0 0
0 0 0 0 -0 -0 -0 -0 0 -0 -0 0 0 0 0 0 0 0 0 0 0 0 0 0 0 0 0 0 0 0 0 -0 0 0 0 0 -0 0 -0 0 0 0 0
Wind_Speed_500mb
23 21 23 25 23 29 34 36 40 42 43 36 36 33 38 38 39 41 47 43 41 35 34 30 29 30 29 28 25 26 32 30 29 34 38 39 45 49 46 42 42 47 46
20 9 9 9 16 24 29 40 48 48 51 38 39 34 31 34 36 37 46 42 39 36 37 37 34 30 27 25 30 30 28 31 29 32 35 42 42 40 42 41 33 37 44
8 2 2 2 7 11 17 18 36 43 47 43 36 33 31 33 34 35 39 41 43 39 40 36 40 34 36 28 29 24 35 29 29 31 32 34 38 44 46 44 42 46 43
3 5 7 9 7 4 6 12 16 21 33 34 37 34 34 33 35 37 38 38 40 39 37 39 34 39 30 26 30 31 30 26 28 26 30 36 43 47 56 51 51 53 51
5 8 11 12 12 12 9 3 5 10 20 23 30 33 37 30 31 32 34 43 36 36 39 39 34 29 32 27 33 28 25 27 30 32 35 36 39 44 45 56 51 45 45
10 11 14 15 15 14 16 16 13 8 4 8 13 24 22 25 25 32 26 26 29 30 30 28 27 27 25 29 26 29 32 36 35 36 36 36 40 46 50 54 57 57 54
13 12 14 18 20 23 22 22 23 25 23 19 13 4 12 21 19 23 22 29 27 26 30 29 28 24 29 30 30 32 37 38 36 37 33 35 39 42 47 51 56 58 59
12 13 9 11 16 20 23 23 24 24 23 22 20 17 11 4 4 12 6 20 22 25 24 24 26 29 30 34 35 34 35 35 36 39 40 37 39 41 43 46 49 55 55
7 4 8 4 4 8 14 15 14 15 16 13 12 6 0 4 9 14 18 16 22 27 26 27 34 35 37 38 43 42 44 44 48 46 48 45 43 43 44 45 45 49 56
7 4 4 3 4 4 5 9 10 9 10 10 9 10 14 17 24 27 30 35 41 44 49 46 37 39 43 47 50 51 53 57 59 58 56 57 54 52 51 51 51 51 54
8 7 6 5 6 2 2 5 6 8 9 12 14 14 15 17 21 28 31 31 40 45 46 45 41 44 50 54 60 66 69 68 63 61 67 74 68 66 64 60 58 57 54
11 11 8 7 9 7 8 9 12 12 14 18 20 21 24 25 27 30 35 38 41 43 44 45 47 49 52 58 66 72 72 73 76 79 81 78 75 75 74 72 66 62 56
16 13 13 10 9 9 9 12 14 17 20 23 26 29 31 34 36 38 41 45 45 47 49 51 55 57 60 65 70 72 75 79 83 85 85 86 82 84 83 77 71 67 61
20 20 15 14 12 13 15 18 21 23 28 31 35 38 40 42 44 46 47 48 49 52 53 54 57 61 64 67 72 75 79 83 86 87 86 88 90 88 84 82 79 77 74
19 15 16 15 18 21 24 28 30 32 33 37 41 44 47 47 48 51 52 53 54 56 57 59 62 65 67 69 70 72 76 80 84 88 88 87 90 96 97 88 82 79 78
12 17 19 21 25 29 31 35 38 39 40 45 49 51 53 53 53 55 57 60 60 61 61 64 65 68 69 67 74 80 84 72 77 80 78 75 80 97 99 87 96 100 87
17 24 25 28 29 32 36 40 44 46 49 52 55 55 56 58 57 58 58 61 65 66 67 67 65 67 68 74 82 86 92 89 77 78 81 84 88 86 82 79 91 99 100
20 24 29 34 35 36 41 45 47 49 52 55 55 55 57 59 60 59 62 66 64 61 60 69 76 75 86 89 92 95 96 100 99 102 99 92 95 88 76 69 74 73 88
24 33 36 39 42 44 47 48 50 51 53 55 56 57 58 61 62 62 62 61 64 71 62 68 88 95 93 82 77 77 83 93 98 101 103 100 86 84 95 102 92 73 73
35 36 41 44 48 48 49 51 53 54 57 57 59 60 58 60 63 62 64 62 60 82 92 83 75 70 70 70 70 63 71 77 76 78 69 72 84 95 88 84 101 81 68
42 46 50 52 54 52 53 56 57 57 59 59 58 58 61 61 58 59 67 90 81 78 76 76 75 68 69 68 66 62 73 77 67 71 66 63 60 60 62 67 73 78 75
48 52 56 57 55 55 56 58 59 59 56 59 62 59 58 58 76 81 74 68 67 67 67 66 67 67 62 62 58 46 43 47 59 65 69 71 63 49 53 63 67 64 44
52 54 56 58 57 54 54 59 58 57 62 61 59 59 76 75 65 65 63 62 60 62 64 64 65 65 60 49 48 47 42 47 53 62 62 53 51 45 32 42 46 50 51
54 55 56 56 58 56 51 49 56 55 58 61 71 79 72 66 61 57 57 60 59 59 59 61 63 62 61 55 52 44 38 43 35 32 40 44 43 42 37 26 34 45 49
52 51 54 57 53 51 55 53 52 62 69 82 73 69 66 61 59 57 57 57 55 53 53 53 56 59 61 61 45 42 42 45 42 30 29 32 40 43 44 42 43 46 45
53 50 48 53 55 52 52 51 57 70 70 69 69 66 60 57 57 59 62 58 56 49 45 45 52 54 55 52 52 55 56 54 43 33 21 29 36 38 40 46 44 46 49
Wind_Direction_500mb
257 279 269 254 249 245 237 236 229 221 229 222 224 234 231 236 234 233 228 219 223 218 225 220 235 236 238 245 252 257 266 268 272 276 281 281 280 278 272 271 270 270 272
238 253 268 268 249 246 241 239 238 231 229 225 227 228 239 239 239 236 232 220 219 214 213 219 222 233 239 239 249 253 254 260 267 271 284 287 289 279 281 259 266 278 270
220 197 81 263 242 234 234 241 242 234 227 218 231 232 225 232 231 229 226 223 218 216 219 222 214 223 239 243 262 254 260 257 259 260 272 284 285 306 296 293 285 290 278
144 81 56 38 13 314 277 255 230 229 218 223 218 232 232 239 233 231 230 226 226 223 221 220 220 223 222 233 232 243 245 264 269 272 267 269 277 286 295 292 287 281 285
87 66 57 48 32 38 33 4 205 213 204 221 226 229 242 240 238 238 229 222 220 218 214 216 210 217 223 229 231 223 238 251 263 270 277 276 277 277 272 286 293 292 288
109 90 76 63 57 59 58 64 70 83 160 226 244 221 235 242 244 230 241 239 224 218 207 207 206 216 220 224 233 253 256 261 255 259 265 275 278 281 284 286 290 290 291
116 73 71 71 67 67 72 69 74 74 76 83 87 117 225 232 240 231 230 227 218 222 226 207 214 219 240 233 242 251 257 255 261 264 269 273 274 277 280 284 287 290 292
135 113 74 85 78 68 70 70 71 73 73 71 66 70 85 134 152 197 238 217 237 236 236 251 231 244 239 249 255 255 254 255 261 269 269 270 271 274 276 278 284 288 288
159 161 134 110 90 63 67 68 74 67 67 61 63 59 186 234 260 243 259 273 270 267 270 262 255 252 249 247 246 252 252 252 254 258 264 267 265 268 272 274 277 284 291
195 179 227 195 241 188 94 60 50 38 25 16 354 312 307 291 273 268 266 265 260 252 254 257 251 255 254 252 251 254 258 256 257 257 258 259 259 261 267 272 274 274 279
256 241 250 229 237 240 309 8 3 343 335 332 329 317 309 300 291 283 282 280 278 278 277 275 269 262 259 255 253 249 249 251 255 258 254 255 255 259 262 266 271 271 273
306 282 275 262 272 273 297 311 333 323 310 313 312 304 296 292 288 283 281 280 280 280 277 274 270 267 263 260 259 258 257 257 257 256 256 254 257 257 257 261 262 266 269
277 279 262 255 268 278 293 291 301 299 301 298 297 296 292 290 288 284 283 282 280 277 274 271 269 268 266 264 262 261 260 259 259 257 255 256 255 253 253 253 255 260 267
272 259 264 253 254 277 286 296 299 296 298 297 296 295 292 289 286 285 284 283 281 279 277 275 273 271 270 268 267 265 265 263 262 260 259 258 255 255 254 255 255 256 259
246 239 254 265 282 290 296 298 298 297 297 294 293 292 292 290 288 285 284 282 280 280 279 278 275 273 270 270 270 270 269 268 267 265 261 259 258 257 255 253 253 253 255
262 259 263 277 288 293 297 298 297 298 296 295 293 292 291 289 287 285 284 284 282 281 279 276 276 274 272 271 268 265 267 270 270 269 266 262 263 260 257 257 254 250 253
289 294 292 287 294 298 298 297 298 298 297 295 295 294 292 289 288 287 285 283 282 282 279 277 276 272 270 266 263 262 263 268 268 265 264 264 259 259 260 261 260 255 252
303 301 299 298 297 297 296 296 296 295 296 295 295 294 292 290 289 287 286 286 285 280 278 277 274 274 268 271 274 274 269 271 267 266 264 263 259 254 258 261 256 261 253
309 300 299 298 297 296 297 296 296 296 296 296 296 295 294 292 291 289 288 284 284 281 280 280 279 281 282 283 282 279 276 270 269 265 264 257 257 259 255 253 253 258 252
291 297 298 298 297 297 299 298 299 299 299 299 298 297 296 293 291 290 289 286 284 285 290 290 289 289 286 289 285 283 281 279 275 274 272 261 255 255 256 256 254 255 249
300 299 299 299 300 303 303 301 302 302 301 300 298 297 296 296 294 292 289 294 296 295 293 289 289 288 286 286 288 280 269 270 270 272 271 272 267 267 255 252 250 241 245
300 301 301 301 302 303 303 303 302 304 302 300 302 301 299 294 297 301 303 303 300 297 295 294 294 296 295 291 292 289 280 281 275 270 269 270 267 260 262 256 242 233 222
305 304 303 302 300 302 304 304 304 302 304 304 303 301 300 306 311 309 307 306 304 299 299 299 299 300 300 292 283 283 281 278 277 277 266 264 256 247 271 240 227 235 237
308 306 304 302 303 305 304 306 306 305 299 305 302 307 311 312 311 311 312 311 309 306 303 302 299 301 299 291 288 286 271 272 276 277 264 259 245 237 251 232 226 231 236
309 309 307 305 306 308 308 308 307 296 299 306 309 312 312 313 315 314 315 315 312 310 305 304 303 299 295 291 285 273 263 264 262 285 258 245 233 241 237 236 237 242 233
313 313 312 309 308 309 309 309 301 307 311 311 311 313 313 315 317 319 319 319 319 320 316 316 317 309 295 287 279 272 265 257 261 269 250 238 232 233 235 235 236 230 237
Wind_Speed_850mb
23 21 23 25 23 29 34 36 40 42 43 36 36 33 38 38 39 41 47 43 41 35 34 30 29 30 29 28 25 26 32 30 29 34 38 39 45 49 46 42 42 47 46
20 9 9 9 16 24 29 40 48 48 51 38 39 34 31 34 36 37 46 42 39 36 37 37 34 30 27 25 30 30 28 31 29 32 35 42 42 40 42 41 33 37 44
8 2 2 2 7 11 17 18 36 43 47 43 36 33 31 33 34 35 39 41 43 39 40 36 40 34 36 28 29 24 35 29 29 31 32 34 38 44 46 44 42 46 43
3 5 7 9 7 4 6 12 16 21 33 34 37 34 34 33 35 37 38 38 40 39 37 39 34 39 30 26 30 31 30 26 28 26 30 36 43 47 56 51 51 53 51
5 8 11 12 12 12 9 3 5 10 20 23 30 33 37 30 31 32 34 43 36 36 39 39 34 29 32 27 33 28 25 27 30 32 35 36 39 44 45 56 51 45 45
10 11 14 15 15 14 16 16 13 8 4 8 13 24 22 25 25 32 26 26 29 30 30 28 27 27 25 29 26 29 32 36 35 36 36 36 40 46 50 54 57 57 54
13 12 14 18 20 23 22 22 23 25 23 19 13 4 12 21 19 23 22 29 27 26 30 29 28 24 29 30 30 32 37 38 36 37 33 35 39 42 47 51 56 58 59
12 13 9 11 16 20 23 23 24 24 23 22 20 17 11 4 4 12 6 20 22 25 24 24 26 29 30 34 35 34 35 35 36 39 40 37 39 41 43 46 49 55 55
7 4 8 4 4 8 14 15 14 15 16 13 12 6 0 4 9 14 18 16 22 27 26 27 34 35 37 38 43 42 44 44 48 46 48 45 43 43 44 45 45 49 56
7 4 4 3 4 4 5 9 10 9 10 10 9 10 14 17 24 27 30 35 41 44 49 46 37 39 43 47 50 51 53 57 59 58 56 57 54 52 51 51 51 51 54
8 7 6 5 6 2 2 5 6 8 9 12 14 14 15 17 21 28 31 31 40 45 46 45 41 44 50 54 60 66 69 68 63 61 67 74 68 66 64 60 58 57 54
11 11 8 7 9 7 8 9 12 12 14 18 20 21 24 25 27 30 35 38 41 43 44 45 47 49 52 58 66 72 72 73 76 79 81 78 75 75 74 72 66 62 56
16 13 13 10 9 9 9 12 14 17 20 23 26 29 31 34 36 38 41 45 45 47 49 51 55 57 60 65 70 72 75 79 83 85 85 86 82 84 83 77 71 67 61
20 20 15 14 12 13 15 18 21 23 28 31 35 38 40 42 44 46 47 48 49 52 53 54 57 61 64 67 72 75 79 83 86 87 86 88 90 88 84 82 79 77 74
19 15 16 15 18 21 24 28 30 32 33 37 41 44 47 47 48 51 52 53 54 56 57 59 62 65 67 69 70 72 76 80 84 88 88 87 90 96 97 88 82 79 78
12 17 19 21 25 29 31 35 38 39 40 45 49 51 53 53 53 55 57 60 60 61 61 64 65 68 69 67 74 80 84 72 77 80 78 75 80 97 99 87 96 100 87
17 24 25 28 29 32 36 40 44 46 49 52 55 55 56 58 57 58 58 61 65 66 67 67 65 67 68 74 82 86 92 89 77 78 81 84 88 86 82 79 91 99 100
20 24 29 34 35 36 41 45 47 49 52 55 55 55 57 59 60 59 62 66 64 61 60 69 76 75 86 89 92 95 96 100 99 102 99 92 95 88 76 69 74 73 88
24 33 36 39 42 44 47 48 50 51 53 55 56 57 58 61 62 62 62 61 64 71 62 68 88 95 93 82 77 77 83 93 98 101 103 100 86 84 95 102 92 73 73
35 36 41 44 48 48 49 51 53 54 57 57 59 60 58 60 63 62 64 62 60 82 92 83 75 70 70 70 70 63 71 77 76 78 69 72 84 95 88 84 101 81 68
42 46 50 52 54 52 53 56 57 57 59 59 58 58 61 61 58 59 67 90 81 78 76 76 75 68 69 68 66 62 73 77 67 71 66 63 60 60 62 67 73 78 75
48 52 56 57 55 55 56 58 59 59 56 59 62 59 58 58 76 81 74 68 67 67 67 66 67 67 62 62 58 46 43 47 59 65 69 71 63 49 53 63 67 64 44
52 54 56 58 57 54 54 59 58 57 62 61 59 59 76 75 65 65 63 62 60 62 64 64 65 65 60 49 48 47 42 47 53 62 62 53 51 45 32 42 46 50 51
54 55 56 56 58 56 51 49 56 55 58 61 71 79 72 66 61 57 57 60 59 59 59 61 63 62 61 55 52 44 38 43 35 32 40 44 43 42 37 26 34 45 49
52 51 54 57 53 51 55 53 52 62 69 82 73 69 66 61 59 57 57 57 55 53 53 53 56 59 61 61 45 42 42 45 42 30 29 32 40 43 44 42 43 46 45
53 50 48 53 55 52 52 51 57 70 70 69 69 66 60 57 57 59 62 58 56 49 45 45 52 54 55 52 52 55 56 54 43 33 21 29 36 38 40 46 44 46 49
Wind_Direction_850mb
257 279 269 254 249 245 237 236 229 221 229 222 224 234 231 236 234 233 228 219 223 218 225 220 235 236 238 245 252 257 266 268 272 276 281 281 280 278 272 271 270 270 272
238 253 268 268 249 246 241 239 238 231 229 225 227 228 239 239 239 236 232 220 219 214 213 219 222 233 239 239 249 253 254 260 267 271 284 287 289 279 281 259 266 278 270
220 197 81 263 242 234 234 241 242 234 227 218 231 232 225 232 231 229 226 223 218 216 219 222 214 223 239 243 262 254 260 257 259 260 272 284 285 306 296 293 285 290 278
144 81 56 38 13 314 277 255 230 229 218 223 218 232 232 239 233 231 230 226 226 223 221 220 220 223 222 233 232 243 245 264 269 272 267 269 277 286 295 292 287 281 285
87 66 57 48 32 38 33 4 205 213 204 221 226 229 242 240 238 238 229 222 220 218 214 216 210 217 223 229 231 223 238 251 263 270 277 276 277 277 272 286 293 292 288
109 90 76 63 57 59 58 64 70 83 160 226 244 221 235 242 244 230 241 239 224 218 207 207 206 216 220 224 233 253 256 261 255 259 265 275 278 281 284 286 290 290 291
116 73 71 71 67 67 72 69 74 74 76 83 87 117 225 232 240 231 230 227 218 222 226 207 214 219 240 233 242 251 257 255 261 264 269 273 274 277 280 284 287 290 292
135 113 74 85 78 68 70 70 71 73 73 71 66 70 85 134 152 197 238 217 237 236 236 251 231 244 239 249 255 255 254 255 261 269 269 270 271 274 276 278 284 288 288
159 161 134 110 90 63 67 68 74 67 67 61 63 59 186 234 260 243 259 273 270 267 270 262 255 252 249 247 246 252 252 252 254 258 264 267 265 268 272 274 277 284 291
195 179 227 195 241 188 94 60 50 38 25 16 354 312 307 291 273 268 266 265 260 252 254 257 251 255 254 252 251 254 258 256 257 257 258 259 259 261 267 272 274 274 279
256 241 250 229 237 240 309 8 3 343 335 332 329 317 309 300 291 283 282 280 278 278 277 275 269 262 259 255 253 249 249 251 255 258 254 255 255 259 262 266 271 271 273
306 282 275 262 272 273 297 311 333 323 310 313 312 304 296 292 288 283 281 280 280 280 277 274 270 267 263 260 259 258 257 257 257 256 256 254 257 257 257 261 262 266 269
277 279 262 255 268 278 293 291 301 299 301 298 297 296 292 290 288 284 283 282 280 277 274 271 269 268 266 264 262 261 260 259 259 257 255 256 255 253 253 253 255 260 267
272 259 264 253 254 277 286 296 299 296 298 297 296 295 292 289 286 285 284 283 281 279 277 275 273 271 270 268 267 265 265 263 262 260 259 258 255 255 254 255 255 256 259
246 239 254 265 282 290 296 298 298 297 297 294 293 292 292 290 288 285 284 282 280 280 279 278 275 273 270 270 270 270 269 268 267 265 261 259 258 257 255 253 253 253 255
262 259 263 277 288 293 297 298 297 298 296 295 293 292 291 289 287 285 284 284 282 281 279 276 276 274 272 271 268 265 267 270 270 269 266 262 263 260 257 257 254 250 253
289 294 292 287 294 298 298 297 298 298 297 295 295 294 292 289 288 287 285 283 282 282 279 277 276 272 270 266 263 262 263 268 268 265 264 264 259 259 260 261 260 255 252
303 301 299 298 297 297 296 296 296 295 296 295 295 294 292 290 289 287 286 286 285 280 278 277 274 274 268 271 274 274 269 271 267 266 264 263 259 254 258 261 256 261 253
309 300 299 298 297 296 297 296 296 296 296 296 296 295 294 292 291 289 288 284 284 281 280 280 279 281 282 283 282 279 276 270 269 265 264 257 257 259 255 253 253 258 252
291 297 298 298 297 297 299 298 299 299 299 299 298 297 296 293 291 290 289 286 284 285 290 290 289 289 286 289 285 283 281 279 275 274 272 261 255 255 256 256 254 255 249
300 299 299 299 300 303 303 301 302 302 301 300 298 297 296 296 294 292 289 294 296 295 293 289 289 288 286 286 288 280 269 270 270 272 271 272 267 267 255 252 250 241 245
300 301 301 301 302 303 303 303 302 304 302 300 302 301 299 294 297 301 303 303 300 297 295 294 294 296 295 291 292 289 280 281 275 270 269 270 267 260 262 256 242 233 222
305 304 303 302 300 302 304 304 304 302 304 304 303 301 300 306 311 309 307 306 304 299 299 299 299 300 300 292 283 283 281 278 277 277 266 264 256 247 271 240 227 235 237
308 306 304 302 303 305 304 306 306 305 299 305 302 307 311 312 311 311 312 311 309 306 303 302 299 301 299 291 288 286 271 272 276 277 264 259 245 237 251 232 226 231 236
309 309 307 305 306 308 308 308 307 296 299 306 309 312 312 313 315 314 315 315 312 310 305 304 303 299 295 291 285 273 263 264 262 285 258 245 233 241 237 236 237 242 233
313 313 312 309 308 309 309 309 301 307 311 311 311 313 313 315 317 319 319 319 319 320 316 316 317 309 295 287 279 272 265 257 261 269 250 238 232 233 235 235 236 230 237